CAPE
0 0 0 0 0 0 0 0 0 0 0 0 0 0 0 0 0 0 0 0 0 0 0 0 0 0 0 0 0 0 0 0 0 0 0 0 0 0 0 23 22 34 0 0 424
1 0 0 0 0 0 0 0 0 0 0 0 0 0 0 0 0 0 0 0 0 0 0 0 0 0 0 0 0 0 0 0 0 0 0 0 0 0 1 11 4 0 0 101 473
1 0 0 0 0 0 0 0 0 0 0 0 0 0 0 0 0 0 0 0 0 0 0 0 0 0 0 0 0 0 0 0 0 0 0 0 0 0 0 0 54 9 0 437 286
0 0 0 0 0 0 0 0 0 0 0 0 0 0 0 0 0 0 0 0 0 0 0 0 0 0 0 0 0 0 0 0 0 0 0 0 0 3 0 22 71 10 75 415 136
0 0 0 0 0 0 0 0 0 0 0 0 0 0 0 0 0 0 0 0 0 0 0 0 0 0 0 0 0 0 0 0 0 0 0 0 0 0 0 124 307 401 546 242 16
0 0 0 0 0 0 0 0 0 0 0 0 0 0 0 0 0 0 0 0 0 0 0 0 0 0 0 0 0 0 0 0 0 0 0 0 0 0 0 274 28 0 0 52 9
0 0 0 0 0 0 0 0 0 0 0 0 0 1 0 0 0 0 0 0 0 0 0 0 0 0 0 0 0 0 0 0 0 0 0 0 0 0 0 68 38 5 2 9 0
7 0 0 0 0 0 0 0 0 0 0 0 0 0 0 0 0 0 0 0 0 0 0 0 0 0 0 0 0 0 0 0 0 0 0 0 0 0 0 0 0 7 30 4 0
0 0 0 0 0 0 0 0 0 0 0 0 0 0 0 0 0 0 0 0 0 0 0 0 0 0 0 0 0 0 0 0 0 0 0 0 0 0 0 0 0 14 10 0 0
0 0 0 0 0 0 0 0 0 0 0 0 2 0 0 0 0 0 0 0 0 0 0 0 0 0 0 0 0 0 0 0 0 0 0 0 0 0 0 0 0 1 8 0 0
1 0 0 0 0 0 0 0 0 0 0 0 0 0 0 0 0 0 0 0 0 0 0 0 0 0 0 0 0 0 0 0 0 0 0 0 0 0 0 0 0 0 0 0 0
1 0 0 0 0 0 0 0 0 0 0 0 0 0 0 0 0 0 0 0 0 0 0 0 0 0 0 0 0 0 0 0 0 0 0 0 0 0 0 0 0 0 0 0 0
0 0 0 0 0 0 0 0 0 0 0 0 0 0 0 0 0 0 0 0 0 0 0 0 0 0 0 0 0 0 0 0 0 0 0 0 0 0 0 0 0 0 0 0 0
0 0 0 0 0 0 0 0 0 0 0 0 0 0 0 0 0 0 0 0 0 0 0 0 0 0 0 0 0 0 0 0 0 0 0 0 0 0 0 0 0 0 0 0 0
0 0 0 0 0 0 0 0 0 1 0 0 0 0 0 0 0 0 0 0 0 0 0 0 0 0 0 0 0 0 0 0 0 0 0 0 0 0 0 0 0 0 0 0 0
0 2 3 0 0 0 0 0 2 0 0 0 0 0 0 0 0 0 0 0 0 0 0 0 0 0 0 0 0 0 0 0 0 0 0 0 0 0 0 0 0 0 0 0 0
6 7 11 0 0 0 0 0 1 0 0 0 0 0 0 0 0 0 0 0 0 0 0 0 0 0 0 0 0 0 0 0 0 0 0 0 0 0 0 0 0 2 0 0 0
6 11 6 0 0 0 0 0 0 0 0 0 0 0 0 0 0 0 0 0 0 0 0 0 0 0 0 0 0 0 0 0 0 0 0 0 0 0 0 0 0 0 0 7 0
20 11 8 0 0 0 0 0 0 0 0 0 0 0 0 0 0 0 0 0 0 0 0 0 0 0 0 0 0 0 0 0 0 0 0 0 0 0 0 0 0 0 0 0 6
15 8 0 0 4 14 0 0 0 0 0 0 0 0 0 0 0 0 0 0 0 0 0 0 0 0 0 0 0 0 0 0 0 0 0 0 0 0 0 0 0 0 0 0 0
25 25 6 0 21 30 0 0 0 0 0 0 0 0 0 0 0 0 0 0 0 0 0 0 0 0 0 0 0 0 0 0 0 0 0 0 0 0 0 0 0 0 0 0 0
29 15 22 1 16 9 1 0 0 0 0 0 0 0 0 0 0 0 0 0 0 0 0 0 0 0 0 0 0 0 0 0 0 0 0 0 0 0 0 0 0 0 0 0 2
21 17 27 23 3 7 3 3 0 0 0 0 0 0 0 0 0 0 0 0 0 0 0 1 0 0 0 0 0 0 0 0 0 0 0 0 0 0 0 0 0 0 0 0 0
0 12 24 17 0 0 3 4 5 0 0 0 0 0 0 0 0 0 0 0 0 0 3 3 1 0 0 0 0 0 0 0 0 0 0 0 0 0 0 0 0 0 0 0 0
0 1 3 1 0 5 1 6 12 2 0 0 0 0 0 0 0 0 0 0 3 2 0 3 0 0 0 0 0 0 0 0 0 0 0 0 0 0 0 0 0 0 0 0 0
0 0 14 0 1 6 2 4 5 5 4 1 3 0 0 0 0 0 0 0 0 5 0 2 0 0 0 0 0 0 0 0 0 0 0 0 0 0 0 0 0 0 0 0 0
3 0 1 1 1 3 1 0 1 0 5 0 0 0 0 0 0 0 0 0 0 7 0 0 0 0 0 0 0 0 0 0 0 0 0 0 0 0 0 0 0 0 0 0 0
CIN
-0 -0 -0 -0 -0 -0 -0 -0 -0 -0 -0 -0 -0 -0 -0 -0 -0 -0 -0 -0 -0 -0 -0 -0 -0 -0 -0 -0 -0 -0 -0 -0 -0 -0 -0 -0 -0 -0 -25 -187 -260 -271 -0 -0 -160
-1 -0 -0 -0 -0 -0 -0 -0 -0 -0 -0 -0 -0 -0 -0 -0 -0 -0 -0 -0 -0 -0 -0 -0 -0 -0 -0 -0 -0 -0 -0 -0 -0 -0 -0 -0 -0 -0 -64 -125 -197 -0 -0 -228 -144
-3 -0 -0 -0 -0 -0 -0 -0 -0 -0 -0 -0 -0 -0 -0 -0 -0 -0 -0 -0 -0 -0 -0 -0 -0 -0 -0 -0 -0 -0 -0 -0 -0 -0 -0 -0 -0 -0 -0 -0 -129 -120 -0 -139 -164
-0 -0 -0 -0 -0 -0 -0 -0 -0 -0 -0 -0 -0 -0 -0 -0 -0 -0 -0 -0 -0 -0 -0 -0 -0 -0 -0 -0 -0 -0 -0 -0 -0 -0 -0 -0 -0 -69 -15 -102 -147 -158 -163 -35 -100
-0 -0 -0 -0 -0 -0 -0 -0 -0 -0 -0 -0 -0 -0 -0 -0 -0 -0 -0 -0 -0 -0 -0 -0 -0 -0 -0 -0 -0 -0 -0 -0 -0 -0 -0 -0 -0 -0 -0 -200 -195 -163 -97 -44 -77
-0 -0 -0 -0 -0 -0 -0 -0 -0 -0 -0 -0 -0 -0 -0 -0 -0 -0 -0 -0 -0 -0 -0 -0 -0 -0 -0 -0 -0 -0 -0 -0 -0 -0 -0 -0 -0 -0 -0 -227 -271 -0 -0 -154 -140
-0 -0 -0 -0 -0 -0 -0 -0 -0 -0 -0 -0 -0 -0 -0 -0 -0 -0 -0 -0 -0 -0 -0 -0 -0 -0 -0 -0 -0 -0 -0 -0 -0 -0 -0 -0 -0 -0 -0 -267 -189 -238 -161 -217 -0
-2 -1 -0 -0 -0 -0 -0 -0 -0 -0 -0 -0 -0 -0 -0 -0 -0 -0 -0 -0 -0 -0 -0 -0 -0 -0 -0 -0 -0 -0 -0 -0 -0 -0 -0 -0 -0 -0 -0 -0 -0 -272 -269 -163 -0
-0 -1 -0 -0 -0 -0 -0 -0 -0 -0 -0 -0 -0 -0 -0 -0 -0 -0 -0 -0 -0 -0 -0 -0 -0 -0 -0 -0 -0 -0 -0 -0 -0 -0 -0 -0 -0 -0 -0 -0 -0 -261 -341 -0 -0
-0 -0 -0 -0 -0 -0 -0 -0 -0 -0 -0 -0 -0 -0 -0 -0 -0 -0 -0 -0 -0 -0 -0 -0 -0 -0 -0 -0 -0 -0 -0 -0 -0 -0 -0 -0 -0 -0 -0 -0 -0 -19 -350 -0 -0
-2 -0 -0 -0 -0 -0 -0 -0 -0 -0 -0 -0 -0 -0 -0 -0 -0 -0 -0 -0 -0 -0 -0 -0 -0 -0 -0 -0 -0 -0 -0 -0 -0 -0 -0 -0 -0 -0 -0 -0 -0 -0 -0 -0 -0
-3 -2 -0 -0 -0 -0 -0 -0 -1 -3 -0 -0 -0 -0 -0 -0 -0 -0 -0 -0 -0 -0 -0 -0 -0 -0 -0 -0 -0 -0 -0 -0 -0 -0 -0 -0 -0 -0 -0 -0 -0 -0 -0 -0 -0
-0 -0 -0 -0 -0 -0 -0 -0 -0 -0 -0 -0 -0 -0 -0 -0 -0 -0 -0 -0 -0 -0 -0 -0 -0 -0 -0 -0 -0 -0 -0 -0 -0 -0 -0 -0 -0 -0 -0 -0 -0 -0 -0 -0 -0
-0 -2 -0 -0 -0 -0 -0 -0 -0 -0 -0 -0 -0 -0 -0 -0 -0 -0 -0 -0 -0 -0 -0 -0 -0 -0 -0 -0 -0 -0 -0 -0 -0 -0 -0 -0 -0 -0 -0 -0 -0 -0 -0 -0 -0
-0 -0 -0 -0 -0 -0 -0 -0 -0 -37 -0 -0 -0 -0 -0 -0 -0 -0 -0 -0 -0 -0 -0 -0 -0 -0 -0 -0 -0 -0 -0 -0 -0 -0 -0 -0 -0 -0 -0 -0 -0 -0 -0 -0 -0
-0 -5 -2 -0 -0 -0 -0 -0 -42 -0 -0 -0 -0 -0 -0 -0 -0 -0 -0 -0 -0 -0 -0 -0 -0 -0 -0 -0 -0 -0 -0 -0 -0 -0 -0 -0 -0 -0 -0 -0 -0 -0 -0 -0 -0
-3 -5 -2 -0 -0 -0 -0 -0 -0 -0 -0 -0 -0 -0 -0 -0 -0 -0 -0 -0 -0 -0 -0 -0 -0 -0 -0 -0 -0 -0 -0 -0 -0 -0 -0 -0 -0 -0 -0 -0 -0 -108 -0 -66 -0
-3 -6 -4 -1 -0 -0 -0 -0 -0 -0 -0 -0 -0 -0 -0 -0 -0 -0 -0 -0 -0 -0 -0 -0 -0 -0 -0 -0 -0 -0 -0 -0 -0 -0 -0 -0 -0 -0 -0 -0 -0 -2 -0 -239 -47
-9 -6 -1 -0 -0 -0 -0 -0 -0 -0 -0 -0 -0 -0 -0 -0 -0 -0 -0 -0 -0 -0 -0 -0 -0 -0 -0 -0 -0 -0 -0 -0 -0 -0 -0 -0 -0 -0 -0 -0 -0 -0 -0 -0 -311
-0 -2 -1 -0 -28 -2 -0 -0 -0 -0 -0 -0 -0 -0 -0 -0 -0 -0 -0 -0 -0 -0 -0 -0 -0 -0 -0 -0 -0 -0 -0 -0 -0 -0 -0 -0 -0 -0 -0 -0 -0 -0 -0 -0 -0
-0 -0 -2 -0 -18 -0 -0 -0 -0 -0 -0 -0 -0 -0 -0 -0 -0 -0 -0 -0 -0 -0 -0 -0 -0 -0 -0 -0 -0 -0 -0 -0 -0 -0 -0 -0 -0 -0 -0 -0 -0 -0 -0 -0 -0
-0 -0 -15 -32 -0 -0 -0 -0 -0 -0 -0 -0 -0 -0 -0 -0 -0 -0 -0 -0 -0 -0 -0 -0 -0 -0 -0 -0 -0 -0 -0 -0 -0 -0 -0 -0 -0 -0 -0 -0 -0 -0 -0 -0 -141
-0 -1 -9 -27 -0 -0 -1 -2 -0 -0 -0 -0 -0 -0 -0 -0 -0 -0 -0 -0 -0 -0 -0 -0 -0 -0 -0 -0 -0 -0 -0 -0 -0 -0 -0 -0 -0 -0 -0 -0 -0 -0 -0 -0 -0
-9 -4 -4 -19 -0 -0 -0 -0 -0 -4 -0 -0 -0 -0 -0 -0 -0 -0 -0 -0 -0 -0 -47 -0 -0 -0 -0 -0 -0 -0 -0 -0 -0 -0 -0 -0 -0 -0 -0 -0 -0 -0 -0 -0 -0
-2 -12 -5 -2 -6 -0 -1 -1 -0 -0 -0 -0 -0 -0 -0 -0 -0 -0 -0 -0 -2 -17 -0 -0 -0 -0 -0 -0 -0 -0 -0 -0 -0 -0 -0 -0 -0 -0 -0 -0 -0 -0 -0 -0 -0
-0 -0 -0 -0 -1 -3 -1 -0 -0 -1 -1 -2 -1 -0 -0 -0 -0 -0 -0 -0 -0 -19 -0 -0 -0 -0 -0 -0 -0 -0 -0 -0 -0 -0 -0 -0 -0 -0 -0 -0 -0 -0 -0 -0 -0
-0 -0 -0 -0 -4 -1 -0 -0 -3 -0 -1 -1 -0 -0 -0 -0 -0 -0 -0 -0 -0 -3 -0 -0 -0 -0 -0 -0 -0 -3 -0 -0 -0 -0 -0 -0 -0 -0 -0 -0 -0 -0 -0 -0 -0
Wind_Speed
30 30 30 29 30 31 32 33 33 34 35 36 37 38 38 39 40 31 29 15 16 9 11 12 12 12 13 12 11 12 15 11 15 18 14 22 16 15 18 18 12 15 17 19 17
31 32 31 31 30 31 32 33 34 35 35 36 37 37 37 37 35 35 13 12 9 8 10 11 11 11 11 10 11 11 12 11 11 11 10 12 12 13 15 9 12 11 10 12 15
32 33 34 33 33 32 32 34 35 35 35 36 37 36 36 35 30 22 17 10 8 6 11 12 10 10 9 7 8 10 9 12 7 7 9 7 9 11 12 13 8 9 8 10 15
33 33 35 35 35 35 34 35 35 36 36 36 37 36 37 26 27 19 16 13 10 7 11 11 10 8 9 5 9 12 8 11 8 10 15 10 10 10 9 9 8 5 13 14 13
34 35 35 35 35 36 36 37 36 36 36 36 37 35 29 27 25 24 21 17 14 11 10 9 9 7 6 7 12 11 12 14 3 2 8 8 5 10 8 6 10 15 15 13 12
32 33 34 37 36 36 37 37 38 38 36 36 36 33 28 35 24 24 25 20 16 10 12 9 11 7 7 9 11 14 17 10 3 8 7 7 7 14 6 7 8 10 14 16 14
32 33 34 34 36 37 37 39 39 38 38 36 34 29 30 37 28 28 28 22 18 13 14 14 12 11 11 13 13 16 25 18 4 2 8 12 9 4 5 9 6 9 12 13 16
33 33 34 35 35 37 39 41 42 42 39 34 29 25 34 28 32 35 31 29 23 23 18 19 13 12 7 12 17 19 16 12 11 10 9 13 1 5 10 10 8 10 11 12 18
33 34 34 35 36 38 40 42 44 40 30 23 22 25 37 29 27 26 18 23 17 17 18 14 10 9 8 13 15 13 9 8 13 12 12 9 7 14 9 8 8 9 11 12 15
32 34 34 35 36 38 40 42 33 21 18 16 23 29 29 28 24 24 19 18 18 15 16 12 13 10 10 9 7 11 8 11 12 12 13 8 3 6 8 8 8 9 10 11 12
32 33 34 35 36 37 38 27 26 26 24 25 25 27 30 27 25 21 21 19 18 18 16 16 17 11 9 6 9 11 10 15 7 6 10 4 5 4 5 6 9 10 10 11 12
32 33 34 34 34 35 26 23 23 29 38 38 39 46 50 37 36 35 21 19 19 21 19 22 19 17 13 8 7 6 9 4 12 3 15 0 1 3 5 8 12 12 12 13 14
33 33 34 33 33 24 26 23 27 30 34 37 32 37 42 30 45 48 27 24 25 25 22 22 21 19 16 11 11 8 7 5 7 23 10 9 7 7 4 4 7 13 13 14 14
33 32 32 32 28 27 25 27 32 29 34 35 28 28 24 24 38 31 25 23 26 26 25 31 31 23 15 14 11 10 7 5 4 17 14 14 13 5 3 7 8 13 15 15 15
33 32 30 27 29 27 26 32 32 20 37 24 22 21 16 15 26 22 18 27 29 25 23 28 23 19 22 14 14 11 12 7 6 22 16 17 15 5 10 3 11 16 17 16 15
32 31 29 28 25 28 30 32 20 25 37 25 20 19 21 22 22 19 15 21 25 29 32 33 23 20 18 19 13 17 23 24 20 13 7 15 12 6 5 9 9 12 15 20 17
31 30 27 23 25 22 28 23 26 29 25 24 23 25 26 24 24 24 18 20 25 27 35 34 36 29 23 24 19 18 22 26 19 9 11 12 12 9 21 12 8 12 16 21 19
30 29 26 24 22 24 22 23 34 30 31 31 28 30 25 25 23 26 24 23 27 26 27 34 40 32 26 26 23 23 18 21 21 16 10 17 12 4 21 25 12 13 15 17 18
29 27 26 25 20 19 23 31 32 29 29 28 30 29 26 25 26 26 27 27 25 27 30 29 35 29 26 26 23 28 28 14 22 23 20 18 19 28 28 24 21 22 14 19 18
27 28 29 20 14 17 28 38 33 29 28 29 30 27 30 30 30 28 27 22 26 23 33 31 35 26 28 24 29 30 22 25 23 18 18 25 22 16 20 8 7 5 18 17 15
26 31 23 14 13 24 36 36 35 36 31 32 35 38 38 39 35 34 30 28 21 27 28 33 41 33 25 28 28 29 31 28 24 25 24 29 26 13 18 7 5 7 9 13 17
27 36 17 10 27 30 38 33 32 32 27 33 33 34 36 35 37 37 35 28 28 27 31 27 33 42 47 30 26 32 32 28 31 28 28 31 17 17 21 28 23 8 4 10 15
31 31 18 15 36 37 33 34 32 32 28 25 27 25 24 32 37 37 38 30 28 29 26 28 32 43 41 39 45 36 31 33 34 29 30 28 28 19 27 25 17 19 26 2 12
27 33 27 26 29 32 33 33 29 23 31 30 27 28 29 31 31 36 36 30 32 34 30 30 36 43 49 39 30 34 32 31 33 37 34 33 30 28 23 20 24 23 23 4 9
30 34 27 32 31 28 27 26 28 26 26 24 27 38 39 38 38 41 45 43 36 32 31 30 39 44 49 45 35 32 32 32 35 42 38 35 34 30 27 30 32 28 29 21 10
32 29 27 28 25 24 25 27 30 36 34 30 33 28 26 32 31 33 33 37 37 30 31 28 35 41 44 41 40 41 36 36 37 39 43 39 42 32 36 33 32 34 32 21 9
33 32 30 31 30 27 32 50 45 43 38 43 38 36 38 43 42 42 41 39 38 38 31 29 32 34 46 34 34 43 45 44 44 42 39 41 38 29 32 36 31 36 31 30 13
Wind_Direction
314 315 313 316 317 315 312 312 312 311 310 308 304 302 302 300 297 312 314 343 346 4 10 12 18 13 5 8 19 28 4 11 0 2 5 351 357 11 5 357 11 7 3 2 20
310 310 311 310 315 315 313 311 309 309 309 307 305 303 302 299 302 297 334 343 359 17 5 358 10 19 15 27 26 18 9 13 15 359 335 342 357 13 15 17 8 12 21 23 14
309 309 307 307 307 311 312 309 308 307 305 306 305 303 301 297 311 319 328 350 1 38 351 356 7 11 16 25 14 14 7 2 348 347 340 351 6 16 10 10 22 20 34 31 9
307 308 306 306 306 305 306 308 307 304 303 302 303 302 300 311 303 318 332 341 350 7 343 354 354 2 0 21 2 348 2 360 356 3 4 9 18 17 17 11 25 32 12 12 12
307 305 304 306 306 304 303 302 303 303 303 302 300 303 308 301 300 302 303 317 323 325 329 339 337 352 345 8 351 343 356 354 340 322 11 11 11 2 8 30 26 20 19 25 31
310 310 308 303 303 305 303 302 300 299 301 301 300 303 301 289 301 306 293 300 301 312 316 322 329 345 345 345 345 343 344 349 269 235 11 19 24 10 15 43 50 38 29 14 24
309 310 309 311 304 305 303 300 299 298 296 298 298 301 293 280 296 293 291 295 297 301 307 311 316 326 352 335 348 339 332 346 208 154 22 19 22 25 54 72 89 50 68 57 11
307 307 309 309 308 305 303 299 295 293 293 293 297 301 291 294 291 285 284 282 284 283 297 301 314 317 330 335 332 332 346 2 37 48 31 18 12 62 54 76 97 90 98 74 357
304 304 304 306 305 304 304 297 293 291 293 295 297 297 290 293 291 291 293 284 278 283 290 301 313 312 326 321 329 339 346 0 356 30 34 33 23 17 60 99 113 121 105 84 47
304 302 300 301 300 300 301 293 295 311 305 297 294 292 290 291 291 293 300 292 278 274 283 289 296 295 301 304 312 335 341 345 349 13 18 14 211 43 56 119 115 120 122 101 91
304 301 300 294 300 302 305 313 305 298 299 284 287 282 286 291 292 286 294 293 280 268 260 277 273 238 236 234 309 332 339 329 336 208 5 218 208 169 94 129 145 136 109 116 105
299 298 297 300 300 302 315 311 310 300 288 280 277 269 249 276 278 267 289 279 272 263 264 269 231 278 281 272 272 295 316 276 330 327 0 180 174 154 125 164 168 152 136 126 118
294 295 295 299 301 313 306 304 312 309 291 285 286 279 269 270 262 251 272 277 272 265 258 258 280 278 259 262 274 268 278 229 333 330 359 8 19 11 128 121 138 157 151 148 130
289 292 294 294 299 303 302 304 302 303 289 285 290 287 288 274 269 269 267 264 268 266 264 265 264 284 273 255 268 262 270 247 258 330 340 355 348 15 12 168 161 171 165 159 147
287 289 291 295 293 293 300 298 299 313 281 298 295 303 306 288 285 293 250 254 258 263 262 266 269 246 266 270 261 277 291 297 243 232 327 329 341 355 355 98 174 181 180 170 157
285 287 289 290 294 292 300 299 305 292 274 295 303 300 296 283 287 300 283 262 259 262 263 264 276 267 253 264 254 281 286 298 310 314 255 326 344 195 127 165 160 166 172 176 163
284 284 285 289 288 299 302 295 280 275 292 290 292 298 293 290 282 282 283 252 255 253 257 265 262 267 272 267 266 266 278 283 299 268 226 327 328 193 229 179 151 152 164 174 168
282 283 285 283 290 295 296 276 270 280 275 286 291 295 291 295 286 281 274 268 261 264 269 259 261 259 263 258 263 261 261 271 291 298 300 311 318 342 215 241 170 165 165 165 167
280 282 281 282 282 289 275 263 272 275 285 286 284 283 286 288 289 288 277 276 274 258 263 268 264 270 262 257 251 260 259 254 278 291 298 298 305 283 255 244 175 171 150 173 178
278 278 275 279 274 275 266 264 270 276 286 287 277 283 278 284 286 285 277 284 276 285 262 266 268 274 266 259 249 252 263 264 272 269 279 287 289 296 300 316 319 117 164 172 171
273 274 280 260 261 264 260 267 274 275 279 281 278 276 275 277 276 276 272 280 291 287 284 270 261 264 272 255 251 249 253 262 268 271 275 283 284 290 292 295 306 300 153 163 172
269 265 270 240 256 264 262 269 278 279 284 272 277 277 275 274 273 271 269 268 291 295 282 278 268 259 254 265 265 254 251 252 260 265 275 272 249 284 288 274 276 287 165 166 167
263 267 262 245 258 258 269 268 271 272 272 278 275 273 280 275 269 268 269 275 280 287 283 287 269 260 260 258 256 257 258 257 260 265 261 267 270 281 275 278 281 279 271 257 175
267 261 262 249 263 257 259 263 264 270 265 268 274 276 278 276 276 269 269 276 279 278 284 288 268 259 254 258 259 257 255 259 256 258 262 263 270 269 281 274 274 281 286 226 182
256 260 260 256 253 256 252 267 257 261 261 266 272 263 267 271 274 272 267 270 270 271 277 280 272 264 259 257 258 258 254 256 259 260 259 266 266 264 269 271 272 279 277 290 275
252 256 255 261 250 242 245 250 254 251 252 259 260 268 271 266 271 278 274 265 266 273 269 280 275 273 260 257 253 254 255 256 260 266 263 266 265 268 264 268 272 271 274 286 272
249 254 252 249 247 243 231 222 232 243 255 246 256 263 260 244 252 241 253 268 264 260 262 273 288 273 257 258 255 254 251 256 258 263 268 265 266 270 268 267 271 272 273 272 265